{"data":{"norad_id":65839,"intl_designator":"2025-221S","name":"STARLINK-35102","alt_names":[],"object_type":"PAYLOAD","status":"ACTIVE","operator":null,"country":"US","launch_date":"2025-09-29","launch_site_code":"AFWTR","launch_vehicle":null,"mission":null,"orbit_class":"UNKNOWN","rcs_meters":null,"size_class":null,"mass_kg":null,"dimensions":null,"purposes":["comms"],"wikipedia_slug":null,"has_3d_model":false,"image_url":null,"decayed_at":null,"tle_current":{"epoch":"2026-05-25T02:23:32.274240Z","epoch_age_seconds":69668,"freshness":"FRESH","line1":"1 65839U 25221S   26145.09967910  .00071810  00000+0  21640-2 0  9993","line2":"2 65839  53.1609  93.3172 0002302  86.1930 273.9336 15.33692432 36433","mean_motion":15.33692432,"eccentricity":0.0002302,"inclination_deg":53.1609,"raan_deg":93.3172,"arg_perigee_deg":86.193,"mean_anomaly_deg":273.9336,"bstar":0.002164,"rev_number":3643,"period_min":93.89105468312,"perigee_km":463.23184417594,"apogee_km":466.38233563493,"semimajor_km":6842.9440899054,"source":"CELESTRAK","updated_at":"2026-05-25T13:38:20.945510Z"}}}